Terug naar catalogus

STARLINK-37466

ActiefCommunicatieSSO
NORAD 69038·PAYLOAD·🇺🇸 United States

Gelanceerd May 6, 2026 vanaf Vandenberg Space Force Base

Loading…

Volgende Passages (komende 24 uur)

TLE

VersSource: CelesTrak SupGP

Epoch: Sep 15, 2026, 03:34 UTC

1 69038C 26101P   26258.14909722 -.00022439  00000+0 -69631-3 0  2580
2 69038  97.2851 111.7952 0001930  95.0306 300.3910 15.33461190    12

Volg STARLINK-37466 in realtime met AllMySat

Download on the App Store